DELTA 1 DEB, 40752

Orbit data source: Space-Track

DELTA 1 DEB, 40752 is space debris in LEO originally from a launch on Thu, 29 Jul 1976 UTC launched from the Air Force Western Test Range (AFWTR). Debris objects in space refer to the collection of defunct objects orbiting the Earth. Examples of debris include non-operational satellites, rocket bodies, and fragments generated from explosions, collisions, or faulty payload assembly.

Loading next visibility...
Identifier
40752, 1976-077FV
Orbit
LEO
Country
Flag of USUS
Related business
Manufacturer
Unknown
Mission
Spacecraft
Bus & Motor
Unknown
Mass
Unknown
Launch date (UTC)
1976-07-29 (49 years ago)
Launch vehicle
Unknown
Launch site
Air Force Western Test Range (AFWTR)
Object type
Payload
Rocket body
Debris
Shape & HBR
Unknown
Radar Cross Section
Small (<0.1 m²)

Expand to show TLE details & history
Last TLE update: 1 month ago

TLE from 1 month ago
0 DELTA 1 DEB
1 40752U 76077FV  25208.79775921  .00000151  00000-0  33841-2 0  9997
2 40752 102.2257 333.7501 0563528 253.8298 273.4103 11.37633322485106
Epoch: 2025-07-27T19:08Z
TLE epoch observation values (Epoch: 2025-07-27T19:08:46.395Z)
Latitude
18.76555°
Longitude
-74.95592°
Altitude
1,973.217 km
Speed
6.912 km/s
True Right ascension
10h 31m 48s
True Declination
18° 40' 35"
Sunlit
Object was in daylight at epoch
Visualization orbit readout
Latitude
Unknown
Longitude
Unknown
Altitude
Unknown
Speed
Unknown
Apparent Right ascension
Unknown
Apparent Declination
Unknown
Sunlit
N/A
Visualization observer readout
Local Sidereal Time
22:44:32
Azimuth
Unknown
Elevation
Unknown
Doppler factor
Unknown
Orbital elements
Apogee altitude
2,440.95 km
Perigee altitude
1,500.014 km
Semi-major axis
8,348.619 km
Eccentricity
0.05635
Inclination
102.2257°
RAAN
333.7501°
Arg. of periapsis
253.8298°
True anomaly
266.95078°
Mean anomaly
273.4103°
Eccentric anomaly
270.18154°
Mean motion
2.84525 °/min
Orbital period
126.53 mins
BSTAR
0.0033841
Loading maneuver chart data...
Computing Atmospheric mass density...
Loading historical data...
Loading historical data...
Loading historical data...
Loading historical data...
Loading historical data...
Loading historical data...
Loading historical data...

Documentation

Showing up to 5 results
|